User: anonymous   Login
Location: Valdosta
(30.8330°N, 83.2790°W)
Time: 07:01:40
(UTC-04:00)
Language:

Oscar 19 - Orbit

View from above orbital plane
View from above orbital plane
View from above satellite
View from above satellite

Ground track
Ground track

The orbit data is extracted from the following two-line orbital elements,

1 20442U 90005G   17291.39425684  .00000010  00000-0  19873-4 0  9990
2 20442  98.5837 226.6974 0012418 139.6365 220.5743 14.32873977449268
Epoch (UTC): 18 October 2017 09:27:43
Eccentricity: 0.0012418
inclination: 98.5837°
perigee height: 773 km
apogee height: 791 km
right ascension of ascending node: 226.6974°
argument of perigee: 139.6365°
revolutions per day: 14.32873977
mean anomaly at epoch: 220.5743°
orbit number at epoch: 44926

The dashed part of the orbit path shows where the satellite is in the earth's shadow,  

DLR